STARLINK-35907

Last updated on Tue Dec 16 2025 00:02:05 GMT+0000 (Coordinated Universal Time)

1 66498U 25263P 25349.35793206 .00030528 00000+0 73452-3 0 9990 2 66498 43.0017 110.2368 0000930 267.6533 92.4217 15.40725968 5967
UTC large
Height (km)
Speed (km/s)
/
Latitude / Longitude
Inclination (degrees)
Orbital Period (minutes)
Azimuth
Elevation
Range (km)
Doppler Factor

Next 0 passes for location: London (51.5072 / 0.1276)

Sorry there are no passes over London.